Time,TemperatureF,DewpointF,PressureIn,WindDirection,WindDirectionDegrees,WindSpeedMPH,WindSpeedGustMPH,Humidity,HourlyPrecipIn,Conditions,Clouds,dailyrainin,SoftwareType,DateUTC
2013-04-21 00:03:00,44.0,24.0,-100.00,ENE,78,3.0,4.0,46,0.00,,,0.00,,2013-04-21 04:03:00,
2013-04-21 00:12:00,44.0,24.0,-100.00,ENE,78,3.0,4.0,46,0.00,,,0.00,,2013-04-21 04:12:00,
2013-04-21 00:23:00,44.0,24.0,-100.00,ENE,66,2.0,4.0,44,0.00,,,0.00,,2013-04-21 04:23:00,
2013-04-21 00:33:00,43.0,24.0,-100.00,ENE,69,3.0,4.0,46,0.00,,,0.00,,2013-04-21 04:33:00,
2013-04-21 00:42:00,43.0,24.0,-100.00,ENE,69,3.0,4.0,46,0.00,,,0.00,,2013-04-21 04:42:00,
2013-04-21 00:53:00,43.0,24.0,-100.00,ENE,61,2.0,4.0,47,0.00,,,0.00,,2013-04-21 04:53:00,
2013-04-21 01:02:00,43.0,24.0,-100.00,ENE,61,2.0,4.0,47,0.00,,,0.00,,2013-04-21 05:02:00,
2013-04-21 01:12:00,43.0,24.0,-100.00,ENE,61,2.0,4.0,47,0.00,,,0.00,,2013-04-21 05:12:00,
2013-04-21 01:22:00,43.0,24.0,-100.00,ENE,58,2.0,4.0,47,0.00,,,0.00,,2013-04-21 05:22:00,
2013-04-21 01:32:00,43.0,24.0,-100.00,ENE,58,2.0,4.0,47,0.00,,,0.00,,2013-04-21 05:32:00,
2013-04-21 01:43:00,42.0,24.0,-100.00,NE,52,2.0,3.0,47,0.00,,,0.00,,2013-04-21 05:43:00,
2013-04-21 01:52:00,42.0,24.0,-100.00,NE,52,2.0,3.0,47,0.00,,,0.00,,2013-04-21 05:52:00,
2013-04-21 02:01:00,43.0,23.0,-100.00,NE,44,2.0,3.0,45,0.00,,,0.00,,2013-04-21 06:01:00,
2013-04-21 02:12:00,43.0,24.0,-100.00,ENE,65,2.0,5.0,47,0.00,,,0.00,,2013-04-21 06:12:00,
2013-04-21 02:22:00,43.0,24.0,-100.00,ENE,65,2.0,5.0,47,0.00,,,0.00,,2013-04-21 06:22:00,
2013-04-21 02:32:00,42.0,23.0,-100.00,ENE,58,4.0,6.0,46,0.00,,,0.00,,2013-04-21 06:32:00,
2013-04-21 02:42:00,42.0,23.0,-100.00,ENE,58,4.0,6.0,46,0.00,,,0.00,,2013-04-21 06:42:00,
2013-04-21 02:52:00,42.0,23.0,-100.00,ENE,58,4.0,6.0,46,0.00,,,0.00,,2013-04-21 06:52:00,
2013-04-21 03:02:00,42.0,23.0,-100.00,NNE,31,2.0,6.0,47,0.00,,,0.00,,2013-04-21 07:02:00,
2013-04-21 03:12:00,42.0,23.0,-100.00,NNE,31,2.0,6.0,47,0.00,,,0.00,,2013-04-21 07:12:00,
2013-04-21 03:22:00,42.0,23.0,-100.00,NE,40,4.0,6.0,47,0.00,,,0.00,,2013-04-21 07:22:00,
2013-04-21 03:32:00,41.0,23.0,-100.00,NNE,30,3.0,6.0,48,0.00,,,0.00,,2013-04-21 07:32:00,
2013-04-21 03:42:00,41.0,23.0,-100.00,NNE,30,3.0,6.0,48,0.00,,,0.00,,2013-04-21 07:42:00,
2013-04-21 03:52:00,41.0,23.0,-100.00,NNE,30,3.0,6.0,48,0.00,,,0.00,,2013-04-21 07:52:00,
2013-04-21 04:01:00,40.0,23.0,-100.00,North,354,4.0,7.0,50,0.00,,,0.00,,2013-04-21 08:01:00,
2013-04-21 04:12:00,40.0,23.0,-100.00,North,354,4.0,7.0,50,0.00,,,0.00,,2013-04-21 08:12:00,
2013-04-21 04:22:00,40.0,23.0,-100.00,NNE,32,5.0,8.0,51,0.00,,,0.00,,2013-04-21 08:22:00,
2013-04-21 04:32:00,40.0,23.0,-100.00,NNE,32,5.0,8.0,51,0.00,,,0.00,,2013-04-21 08:32:00,
2013-04-21 04:42:00,40.0,23.0,-100.00,NE,42,6.0,12.0,51,0.00,,,0.00,,2013-04-21 08:42:00,
2013-04-21 04:52:00,40.0,24.0,-100.00,NE,55,7.0,10.0,51,0.00,,,0.00,,2013-04-21 08:52:00,
2013-04-21 05:02:00,40.0,24.0,-100.00,NE,55,7.0,10.0,51,0.00,,,0.00,,2013-04-21 09:02:00,
2013-04-21 05:12:00,40.0,24.0,-100.00,NE,38,6.0,10.0,52,0.00,,,0.00,,2013-04-21 09:12:00,
2013-04-21 05:21:00,40.0,24.0,-100.00,NE,38,6.0,10.0,52,0.00,,,0.00,,2013-04-21 09:21:00,
2013-04-21 05:32:00,39.0,24.0,-100.00,NE,44,10.0,17.0,54,0.00,,,0.00,,2013-04-21 09:32:00,
2013-04-21 05:43:00,39.0,24.0,-100.00,NE,44,10.0,17.0,54,0.00,,,0.00,,2013-04-21 09:43:00,
2013-04-21 05:53:00,38.0,24.0,-100.00,NNE,23,5.0,12.0,57,0.00,,,0.00,,2013-04-21 09:53:00,
2013-04-21 06:03:00,38.0,24.0,-100.00,NNE,23,5.0,12.0,57,0.00,,,0.00,,2013-04-21 10:03:00,
2013-04-21 06:12:00,38.0,24.0,-100.00,NE,40,6.0,12.0,56,0.00,,,0.00,,2013-04-21 10:12:00,
2013-04-21 06:22:00,38.0,24.0,-100.00,NE,40,6.0,12.0,56,0.00,,,0.00,,2013-04-21 10:22:00,
2013-04-21 06:32:00,38.0,24.0,-100.00,NE,37,7.0,11.0,57,0.00,,,0.00,,2013-04-21 10:32:00,
2013-04-21 06:42:00,38.0,24.0,-100.00,NE,37,7.0,11.0,57,0.00,,,0.00,,2013-04-21 10:42:00,
2013-04-21 06:52:00,38.0,24.0,-100.00,NNE,28,7.0,11.0,58,0.00,,,0.00,,2013-04-21 10:52:00,
2013-04-21 07:03:00,38.0,25.0,-100.00,North,354,5.0,9.0,60,0.00,,,0.00,,2013-04-21 11:03:00,
2013-04-21 07:12:00,38.0,25.0,-100.00,North,354,5.0,9.0,60,0.00,,,0.00,,2013-04-21 11:12:00,
2013-04-21 07:22:00,37.0,25.0,-100.00,NNE,18,7.0,13.0,60,0.00,,,0.00,,2013-04-21 11:22:00,
2013-04-21 07:34:00,37.0,25.0,-100.00,NNE,18,7.0,13.0,60,0.00,,,0.00,,2013-04-21 11:34:00,
2013-04-21 07:42:00,37.0,25.0,-100.00,NNE,18,7.0,13.0,60,0.00,,,0.00,,2013-04-21 11:42:00,
2013-04-21 07:52:00,37.0,25.0,-100.00,NNE,21,6.0,11.0,61,0.00,,,0.00,,2013-04-21 11:52:00,
2013-04-21 08:02:00,37.0,25.0,-100.00,NNE,25,6.0,10.0,61,0.00,,,0.00,,2013-04-21 12:02:00,
2013-04-21 08:12:00,37.0,25.0,-100.00,NNE,25,6.0,10.0,61,0.00,,,0.00,,2013-04-21 12:12:00,
2013-04-21 08:22:00,38.0,25.0,-100.00,ENE,62,5.0,8.0,58,0.00,,,0.00,,2013-04-21 12:22:00,
2013-04-21 08:32:00,38.0,25.0,-100.00,ENE,62,5.0,8.0,58,0.00,,,0.00,,2013-04-21 12:32:00,
2013-04-21 08:42:00,38.0,25.0,-100.00,ENE,62,5.0,8.0,58,0.00,,,0.00,,2013-04-21 12:42:00,
2013-04-21 08:52:00,38.0,25.0,-100.00,ENE,62,5.0,8.0,58,0.00,,,0.00,,2013-04-21 12:52:00,
2013-04-21 09:01:00,39.0,26.0,-100.00,NNE,23,4.0,7.0,59,0.00,,,0.00,,2013-04-21 13:01:00,
2013-04-21 09:12:00,39.0,26.0,-100.00,NNE,23,4.0,7.0,59,0.00,,,0.00,,2013-04-21 13:12:00,
2013-04-21 09:22:00,42.0,27.0,-100.00,SW,216,2.0,3.0,55,0.00,,,0.00,,2013-04-21 13:22:00,
2013-04-21 09:32:00,43.0,29.0,-100.00,SSE,150,2.0,7.0,58,0.00,,,0.00,,2013-04-21 13:32:00,
2013-04-21 09:42:00,43.0,29.0,-100.00,SSE,150,2.0,7.0,58,0.00,,,0.00,,2013-04-21 13:42:00,
2013-04-21 09:52:00,43.0,28.0,-100.00,SSE,161,2.0,4.0,54,0.00,,,0.00,,2013-04-21 13:52:00,
2013-04-21 10:02:00,45.0,28.0,-100.00,ENE,73,4.0,7.0,51,0.00,,,0.00,,2013-04-21 14:02:00,
2013-04-21 10:11:00,45.0,28.0,-100.00,ENE,73,4.0,7.0,51,0.00,,,0.00,,2013-04-21 14:11:00,
2013-04-21 10:22:00,46.0,28.0,-100.00,South,175,3.0,6.0,50,0.00,,,0.00,,2013-04-21 14:22:00,
2013-04-21 10:32:00,49.0,30.0,-100.00,ESE,112,2.0,5.0,49,0.00,,,0.00,,2013-04-21 14:32:00,
2013-04-21 10:42:00,49.0,30.0,-100.00,ESE,112,2.0,5.0,49,0.00,,,0.00,,2013-04-21 14:42:00,
2013-04-21 10:52:00,49.0,30.0,-100.00,ESE,112,2.0,5.0,49,0.00,,,0.00,,2013-04-21 14:52:00,
2013-04-21 11:02:00,52.0,29.0,-100.00,SE,144,2.0,5.0,41,0.00,,,0.00,,2013-04-21 15:02:00,
2013-04-21 11:11:00,52.0,29.0,-100.00,SE,144,2.0,5.0,41,0.00,,,0.00,,2013-04-21 15:11:00,
2013-04-21 11:22:00,53.0,29.0,-100.00,NE,44,3.0,5.0,41,0.00,,,0.00,,2013-04-21 15:22:00,
2013-04-21 11:33:00,55.0,28.0,-100.00,East,92,3.0,7.0,35,0.00,,,0.00,,2013-04-21 15:33:00,
2013-04-21 11:43:00,55.0,28.0,-100.00,East,92,3.0,7.0,35,0.00,,,0.00,,2013-04-21 15:43:00,
2013-04-21 11:53:00,54.0,29.0,-100.00,ESE,104,3.0,5.0,39,0.00,,,0.00,,2013-04-21 15:53:00,
2013-04-21 12:03:00,55.0,28.0,-100.00,SE,128,3.0,5.0,35,0.00,,,0.00,,2013-04-21 16:03:00,
2013-04-21 12:13:00,55.0,28.0,-100.00,SE,128,3.0,5.0,35,0.00,,,0.00,,2013-04-21 16:13:00,
2013-04-21 12:23:00,57.0,26.0,-100.00,SE,143,3.0,4.0,30,0.00,,,0.00,,2013-04-21 16:23:00,
2013-04-21 12:33:00,56.0,24.0,-100.00,SSW,200,4.0,6.0,29,0.00,,,0.00,,2013-04-21 16:33:00,
2013-04-21 12:42:00,56.0,24.0,-100.00,SSW,200,4.0,6.0,29,0.00,,,0.00,,2013-04-21 16:42:00,
2013-04-21 12:53:00,57.0,25.0,-100.00,SW,236,6.0,9.0,29,0.00,,,0.00,,2013-04-21 16:53:00,
2013-04-21 13:02:00,57.0,25.0,-100.00,SW,236,6.0,9.0,29,0.00,,,0.00,,2013-04-21 17:02:00,
2013-04-21 13:12:00,57.0,26.0,-100.00,South,184,3.0,6.0,30,0.00,,,0.00,,2013-04-21 17:12:00,
2013-04-21 13:23:00,57.0,26.0,-100.00,South,184,3.0,6.0,30,0.00,,,0.00,,2013-04-21 17:23:00,
2013-04-21 13:32:00,58.0,25.0,-100.00,South,172,3.0,5.0,29,0.00,,,0.00,,2013-04-21 17:32:00,
2013-04-21 13:42:00,59.0,25.0,-100.00,SSE,158,4.0,5.0,27,0.00,,,0.00,,2013-04-21 17:42:00,
2013-04-21 13:52:00,59.0,25.0,-100.00,SSE,158,4.0,5.0,27,0.00,,,0.00,,2013-04-21 17:52:00,
2013-04-21 14:02:00,57.0,25.0,-100.00,SSW,210,4.0,6.0,28,0.00,,,0.00,,2013-04-21 18:02:00,
2013-04-21 14:11:00,57.0,25.0,-100.00,SSW,210,4.0,6.0,28,0.00,,,0.00,,2013-04-21 18:11:00,
2013-04-21 14:22:00,59.0,27.0,-100.00,NE,49,2.0,4.0,30,0.00,,,0.00,,2013-04-21 18:22:00,
2013-04-21 14:33:00,61.0,28.0,-100.00,SE,131,4.0,5.0,28,0.00,,,0.00,,2013-04-21 18:33:00,
2013-04-21 14:42:00,61.0,28.0,-100.00,SE,131,4.0,5.0,28,0.00,,,0.00,,2013-04-21 18:42:00,
2013-04-21 14:52:00,61.0,28.0,-100.00,SE,131,4.0,5.0,28,0.00,,,0.00,,2013-04-21 18:52:00,
2013-04-21 15:02:00,60.0,26.0,-100.00,SW,236,4.0,6.0,26,0.00,,,0.00,,2013-04-21 19:02:00,
2013-04-21 15:12:00,60.0,26.0,-100.00,SW,236,4.0,6.0,26,0.00,,,0.00,,2013-04-21 19:12:00,
2013-04-21 15:22:00,61.0,26.0,-100.00,SSW,192,4.0,7.0,27,0.00,,,0.00,,2013-04-21 19:22:00,
2013-04-21 15:32:00,61.0,27.0,-100.00,South,182,4.0,7.0,27,0.00,,,0.00,,2013-04-21 19:32:00,
2013-04-21 15:42:00,61.0,27.0,-100.00,South,182,4.0,7.0,27,0.00,,,0.00,,2013-04-21 19:42:00,
2013-04-21 15:52:00,63.0,28.0,-100.00,WSW,247,2.0,4.0,26,0.00,,,0.00,,2013-04-21 19:52:00,
2013-04-21 16:02:00,62.0,27.0,-100.00,SSW,200,3.0,6.0,27,0.00,,,0.00,,2013-04-21 20:02:00,
2013-04-21 16:11:00,62.0,27.0,-100.00,SSW,200,3.0,6.0,27,0.00,,,0.00,,2013-04-21 20:11:00,
2013-04-21 16:22:00,62.0,27.0,-100.00,SSW,200,3.0,6.0,27,0.00,,,0.00,,2013-04-21 20:22:00,
2013-04-21 16:32:00,61.0,27.0,-100.00,South,179,5.0,10.0,27,0.00,,,0.00,,2013-04-21 20:32:00,
2013-04-21 16:42:00,61.0,27.0,-100.00,South,179,5.0,10.0,27,0.00,,,0.00,,2013-04-21 20:42:00,
2013-04-21 16:52:00,60.0,27.0,-100.00,ESE,107,5.0,9.0,28,0.00,,,0.00,,2013-04-21 20:52:00,
2013-04-21 17:02:00,60.0,27.0,-100.00,ESE,107,5.0,9.0,28,0.00,,,0.00,,2013-04-21 21:02:00,
2013-04-21 17:12:00,60.0,26.0,-100.00,SSW,200,4.0,6.0,27,0.00,,,0.00,,2013-04-21 21:12:00,
2013-04-21 17:22:00,60.0,26.0,-100.00,SSW,200,4.0,6.0,27,0.00,,,0.00,,2013-04-21 21:22:00,
2013-04-21 17:33:00,60.0,26.0,-100.00,South,169,4.0,6.0,27,0.00,,,0.00,,2013-04-21 21:33:00,
2013-04-21 17:43:00,60.0,26.0,-100.00,South,169,4.0,6.0,27,0.00,,,0.00,,2013-04-21 21:43:00,
2013-04-21 17:53:00,60.0,27.0,-100.00,South,176,5.0,9.0,28,0.00,,,0.00,,2013-04-21 21:53:00,
2013-04-21 18:03:00,60.0,26.0,-100.00,ESE,120,3.0,7.0,27,0.00,,,0.00,,2013-04-21 22:03:00,
2013-04-21 18:12:00,60.0,26.0,-100.00,ESE,120,3.0,7.0,27,0.00,,,0.00,,2013-04-21 22:12:00,
2013-04-21 18:22:00,60.0,24.0,-100.00,SE,130,4.0,7.0,25,0.00,,,0.00,,2013-04-21 22:22:00,
2013-04-21 18:33:00,60.0,24.0,-100.00,SE,130,4.0,7.0,25,0.00,,,0.00,,2013-04-21 22:33:00,
2013-04-21 18:43:00,60.0,24.0,-100.00,SE,130,4.0,7.0,25,0.00,,,0.00,,2013-04-21 22:43:00,
2013-04-21 18:53:00,59.0,26.0,-100.00,SE,140,4.0,6.0,27,0.00,,,0.00,,2013-04-21 22:53:00,
2013-04-21 19:02:00,60.0,24.0,-100.00,SW,234,2.0,3.0,25,0.00,,,0.00,,2013-04-21 23:02:00,
2013-04-21 19:12:00,60.0,24.0,-100.00,SW,234,2.0,3.0,25,0.00,,,0.00,,2013-04-21 23:12:00,
2013-04-21 19:22:00,60.0,25.0,-100.00,SSW,210,4.0,8.0,26,0.00,,,0.00,,2013-04-21 23:22:00,
2013-04-21 19:32:00,60.0,25.0,-100.00,SSW,208,2.0,4.0,26,0.00,,,0.00,,2013-04-21 23:32:00,
2013-04-21 19:42:00,60.0,25.0,-100.00,SSW,208,2.0,4.0,26,0.00,,,0.00,,2013-04-21 23:42:00,
2013-04-21 19:52:00,60.0,25.0,-100.00,SSW,208,2.0,4.0,26,0.00,,,0.00,,2013-04-21 23:52:00,
2013-04-21 20:01:00,58.0,25.0,-100.00,SW,215,1.0,2.0,28,0.00,,,0.00,,2013-04-22 00:01:00,
2013-04-21 20:12:00,58.0,25.0,-100.00,SW,215,1.0,2.0,28,0.00,,,0.00,,2013-04-22 00:12:00,
2013-04-21 20:22:00,57.0,27.0,-100.00,NE,45,1.0,2.0,32,0.00,,,0.00,,2013-04-22 00:22:00,
2013-04-21 20:32:00,56.0,25.0,-100.00,NE,41,2.0,3.0,30,0.00,,,0.00,,2013-04-22 00:32:00,
2013-04-21 20:42:00,56.0,25.0,-100.00,NE,41,2.0,3.0,30,0.00,,,0.00,,2013-04-22 00:42:00,
2013-04-21 20:52:00,56.0,25.0,-100.00,NE,41,2.0,3.0,30,0.00,,,0.00,,2013-04-22 00:52:00,
2013-04-21 21:01:00,56.0,27.0,-100.00,NE,44,4.0,6.0,33,0.00,,,0.00,,2013-04-22 01:01:00,
2013-04-21 21:12:00,56.0,27.0,-100.00,NE,44,4.0,6.0,33,0.00,,,0.00,,2013-04-22 01:12:00,
2013-04-21 21:22:00,56.0,27.0,-100.00,NE,56,3.0,4.0,34,0.00,,,0.00,,2013-04-22 01:22:00,
2013-04-21 21:32:00,56.0,27.0,-100.00,ENE,59,2.0,4.0,33,0.00,,,0.00,,2013-04-22 01:32:00,
2013-04-21 21:42:00,56.0,27.0,-100.00,ENE,59,2.0,4.0,33,0.00,,,0.00,,2013-04-22 01:42:00,
2013-04-21 21:52:00,57.0,27.0,-100.00,East,95,6.0,11.0,32,0.00,,,0.00,,2013-04-22 01:52:00,
2013-04-21 22:02:00,56.0,28.0,-100.00,East,89,7.0,14.0,34,0.00,,,0.00,,2013-04-22 02:02:00,
2013-04-21 22:12:00,56.0,28.0,-100.00,East,89,7.0,14.0,34,0.00,,,0.00,,2013-04-22 02:12:00,
2013-04-21 22:22:00,55.0,28.0,-100.00,East,86,10.0,19.0,35,0.00,,,0.00,,2013-04-22 02:22:00,
2013-04-21 22:32:00,54.0,29.0,-100.00,SSE,160,2.0,5.0,38,0.00,,,0.00,,2013-04-22 02:32:00,
2013-04-21 22:42:00,54.0,29.0,-100.00,SSE,160,2.0,5.0,38,0.00,,,0.00,,2013-04-22 02:42:00,
2013-04-21 22:52:00,54.0,29.0,-100.00,SE,133,7.0,11.0,38,0.00,,,0.00,,2013-04-22 02:52:00,
2013-04-21 23:02:00,53.0,29.0,-100.00,East,97,5.0,10.0,40,0.00,,,0.00,,2013-04-22 03:02:00,
2013-04-21 23:11:00,53.0,29.0,-100.00,East,97,5.0,10.0,40,0.00,,,0.00,,2013-04-22 03:11:00,
2013-04-21 23:22:00,52.0,30.0,-100.00,SE,140,9.0,14.0,43,0.00,,,0.00,,2013-04-22 03:22:00,
2013-04-21 23:33:00,52.0,30.0,-100.00,SE,140,9.0,14.0,43,0.00,,,0.00,,2013-04-22 03:33:00,
2013-04-21 23:43:00,52.0,30.0,-100.00,SE,140,9.0,14.0,43,0.00,,,0.00,,2013-04-22 03:43:00,
2013-04-21 23:53:00,52.0,30.0,-100.00,ESE,104,11.0,18.0,43,0.00,,,0.00,,2013-04-22 03:53:00,